Las Vegas, NV

3:32 AM PDT on June 25, 2017 (GMT -0700)
McCarran International

Weather History for KLAS - August, 2015

Change the Weather History Date:

Thursday, August 13, 2015

  Actual Average Record
Temperature  
Mean Temperature 90 °F 91 °F  
Max Temperature 103 °F 103 °F 113 °F (1937)
Min Temperature 77 °F 80 °F 60 °F (1949)
Degree Days  
Heating Degree Days 0 0  
Month to date heating degree days 0 0  
Since 1 June heating degree days 0 1  
Since 1 July heating degree days 0 0  
Cooling Degree Days 25 26  
Month to date cooling degree days 342 349  
Year to date cooling degree days 2561 2403  
Since 1 June cooling degree days 1958 1853  
Growing Degree Days 42 (Base 50)    
Moisture  
Dew Point 62 °F    
Average Humidity 44    
Maximum Humidity 65    
Minimum Humidity 23    
Precipitation  
Precipitation 0.57 in 0.01 in 0.57 in (2015)
Month to date precipitation 0.68 0.15  
Year to date precipitation 3.06 2.63  
Snow  
Snow 0.00 in 0.00 in 0.00 in ()
Month to date snowfall 0.0 0.0  
Since 1 June snowfall 0.0 0.0  
Since 1 July snowfall 0.0 0.0  
Snow Depth 0.00 in    
Sea Level Pressure  
Sea Level Pressure 29.91 in    
Wind  
Wind Speed 7 mph (NE)    
Max Wind Speed 23 mph    
Max Gust Speed 32 mph    
Visibility 10 miles    
Events Rain , Thunderstorm    
T = Trace of Precipitation, MM = Missing Value Source: NWS Daily Summary

Daily Weather History Graph

Daily Weather History Graph

Search for Another Location

Airport or City:

Trip Planner

Search our weather history database for the weather conditions in past years. The results will help you decide how hot, cold, wet, or windy it might be!

Date:

Astronomy

Aug. 13, 2015 Rise Set
Actual Time 5:57 AM PDT 7:33 PM PDT
Civil Twilight 5:29 AM PDT 8:00 PM PDT
Nautical Twilight 4:56 AM PDT 8:33 PM PDT
Astronomical Twilight 4:21 AM PDT 9:08 PM PDT
Moon 5:08 AM PDT (8/13) 6:54 PM PDT (8/13)
Length of Visible Light 14h 30m
Length of Day
13h 35m
Waning Crescent, 1% of the Moon is Illuminated
Aug 13
Waning Crescent
Aug 14
New
Aug 22
First Quarter
Aug 29
Full
Sep 5
Last Quarter

Hourly Weather History & Observations

Time (PDT) Temp. Heat Index Dew Point Humidity Pressure Visibility Wind Dir Wind Speed Gust Speed Precip Events Conditions
12:56 AM 91.9 °F 90.8 °F 57.9 °F 32% 29.89 in 10.0 mi NNE 10.4 mph - N/A   Clear
1:56 AM 90.0 °F 88.8 °F 57.9 °F 34% 29.89 in 10.0 mi North 6.9 mph - N/A   Clear
2:56 AM 89.1 °F 88.2 °F 59.0 °F 36% 29.89 in 10.0 mi North 8.1 mph - N/A   Clear
3:56 AM 89.1 °F 88.2 °F 59.0 °F 36% 29.90 in 10.0 mi North 8.1 mph - N/A   Clear
4:56 AM 87.1 °F 86.5 °F 59.0 °F 39% 29.91 in 10.0 mi North 6.9 mph - N/A   Clear
5:56 AM 87.1 °F 86.5 °F 59.0 °F 39% 29.91 in 10.0 mi North 9.2 mph - N/A   Partly Cloudy
6:56 AM 88.0 °F 87.1 °F 59.0 °F 37% 29.93 in 10.0 mi NNE 6.9 mph - N/A   Partly Cloudy
7:56 AM 91.0 °F 90.0 °F 57.9 °F 33% 29.94 in 10.0 mi NE 10.4 mph - N/A   Partly Cloudy
8:56 AM 93.0 °F 92.0 °F 57.9 °F 31% 29.94 in 10.0 mi NE 9.2 mph - N/A   Partly Cloudy
9:56 AM 95.0 °F 94.0 °F 57.9 °F 29% 29.94 in 10.0 mi ENE 8.1 mph - N/A   Scattered Clouds
10:35 AM 96.1 °F 95.2 °F 57.9 °F 28% 30.03 in 10.0 mi ENE 9.2 mph - N/A   Scattered Clouds
10:56 AM 97.0 °F 96.1 °F 57.9 °F 27% 29.93 in 10.0 mi Variable 4.6 mph - N/A   Scattered Clouds
11:25 AM 98.1 °F 97.2 °F 57.9 °F 26% 30.02 in 10.0 mi Variable 4.6 mph - N/A   Scattered Clouds
11:56 AM 100.0 °F 99.7 °F 57.9 °F 25% 29.91 in 10.0 mi ENE 9.2 mph - N/A   Scattered Clouds
12:06 PM 100.0 °F 99.7 °F 57.9 °F 25% 29.99 in 10.0 mi ESE 8.1 mph - N/A   Mostly Cloudy
12:56 PM 100.9 °F 99.6 °F 55.9 °F 22% 29.87 in 10.0 mi ESE 8.1 mph - N/A   Mostly Cloudy
1:56 PM 100.9 °F 99.6 °F 55.9 °F 22% 29.84 in 10.0 mi WNW 4.6 mph - N/A   Mostly Cloudy
2:50 PM 100.4 °F 98.8 °F 55.4 °F 22% 29.93 in 10.0 mi Variable 6.9 mph - N/A Thunderstorm Thunderstorm
2:56 PM 100.9 °F 99.6 °F 55.0 °F 22% 29.83 in 10.0 mi NNW 5.8 mph - N/A Thunderstorm Thunderstorm
3:56 PM 81.0 °F 84.9 °F 71.1 °F 72% 29.93 in 5.0 mi ESE 13.8 mph 26.5 mph 0.09 in Rain , Thunderstorm Thunderstorms and Rain
4:56 PM 84.0 °F 89.0 °F 71.1 °F 65% 29.89 in 10.0 mi Variable 5.8 mph - 0.36 in Rain , Thunderstorm Light Thunderstorms and Rain
5:48 PM 82.9 °F 88.0 °F 72.0 °F 69% 29.95 in 10.0 mi West 11.5 mph - 0.10 in   Mostly Cloudy
5:56 PM 82.9 °F 86.5 °F 69.1 °F 63% 29.87 in 10.0 mi West 16.1 mph - 0.10 in   Mostly Cloudy
6:56 PM 84.0 °F 88.4 °F 70.0 °F 63% 29.88 in 8.0 mi SSE 4.6 mph - 0.02 in Rain Light Rain
7:00 PM 84.0 °F 89.0 °F 71.1 °F 65% 29.97 in 8.0 mi SE 9.2 mph - 0.00 in Rain , Thunderstorm Light Thunderstorms and Rain
7:56 PM 84.0 °F 86.5 °F 66.9 °F 56% 29.88 in 10.0 mi South 3.5 mph - 0.00 in Thunderstorm Thunderstorm
8:35 PM 82.9 °F 85.0 °F 66.0 °F 56% 29.95 in 10.0 mi West 8.1 mph - 0.00 in   Mostly Cloudy
8:56 PM 82.9 °F 85.0 °F 66.0 °F 56% 29.88 in 10.0 mi Calm Calm - 0.00 in   Mostly Cloudy
9:56 PM 82.9 °F 85.0 °F 66.0 °F 56% 29.87 in 10.0 mi South 3.5 mph - N/A   Mostly Cloudy
10:56 PM 82.0 °F 84.5 °F 66.9 °F 60% 29.87 in 10.0 mi Calm Calm - N/A   Mostly Cloudy
11:56 PM 82.0 °F 84.5 °F 66.9 °F 60% 29.87 in 10.0 mi WNW 4.6 mph - N/A   Mostly Cloudy